Location: Góry Miechowskie
(50.3599°N, 20.1803°E)
Time: 04:28:20
(UTC+00:00)

SR - Pass Details

Date: 21 September 2024
Orbit: 578 x 855 km, 66.7° (Epoch: 04 October)

Event Time Altitude Azimuth Distance (km) Brightness Sun altitude
Rises 18:23:42 0° 323° (NW) 2,921 ? -17.1°
Reaches altitude 10° 18:25:54 10° 325° (NW) 2,045 ? -17.5°
Maximum altitude 18:30:32 77° 51° (NE) 703 ? -18.1°
Enters shadow 18:32:35 35° 132° (SE) 1,117 ? -18.4°
